Hourly Weather Barreiras

Today, 19 April, Monday

Time Temperature Precipitation Wind Pressure Humidity
00:00 +23°C° 0.3 mm 1 mps 719 mmHg 93%
01:00 +21°C° 0 mm 0 mps 719 mmHg 93%
02:00 +21°C° 0 mm 0 mps 718 mmHg 93%
03:00 +21°C° 0 mm 0 mps 718 mmHg 93%
04:00 +21°C° 0 mm 0 mps 718 mmHg 93%
05:00 +21°C° 0 mm 0 mps 718 mmHg 93%
06:00 +21°C° 0 mm 0 mps 719 mmHg 94%
07:00 +24°C° 0.3 mm 1 mps 719 mmHg 89%
08:00 +25°C° 0.3 mm 1 mps 720 mmHg 85%
09:00 +26°C° 0.3 mm 1 mps 721 mmHg 80%
10:00 +28°C° 0.7 mm 1 mps 720 mmHg 73%
11:00 +29°C° 0.7 mm 1 mps 720 mmHg 65%
12:00 +31°C° 0.7 mm 1 mps 720 mmHg 58%
13:00 +30°C° 0.9 mm 1 mps 719 mmHg 64%
14:00 +29°C° 0.9 mm 1 mps 719 mmHg 70%
15:00 +28°C° 0.9 mm 1 mps 718 mmHg 76%
16:00 +26°C° 3.9 mm 1 mps 718 mmHg 82%
17:00 +25°C° 3.9 mm 1 mps 718 mmHg 89%
18:00 +24°C° 3.9 mm 1 mps 718 mmHg 96%
19:00 +24°C° 0.5 mm 1 mps 719 mmHg 95%
20:00 +23°C° 0.5 mm 1 mps 719 mmHg 95%
21:00 +23°C° 0.5 mm 1 mps 720 mmHg 95%
22:00 +23°C° 0.5 mm 1 mps 719 mmHg 95%
23:00 +23°C° 0.5 mm 1 mps 719 mmHg 96%

Tomorrow, 20 April, Tuesday

Time Temperature Precipitation Wind Pressure Humidity
00:00 +23°C° 0.5 mm 1 mps 719 mmHg 96%
01:00 +23°C° 0.6 mm 1 mps 719 mmHg 96%
02:00 +23°C° 0.6 mm 1 mps 719 mmHg 96%
03:00 +23°C° 0.6 mm 1 mps 718 mmHg 96%
04:00 +23°C° 1.2 mm 1 mps 718 mmHg 97%
05:00 +23°C° 1.2 mm 1 mps 719 mmHg 97%
06:00 +23°C° 1.2 mm 1 mps 719 mmHg 98%
07:00 +23°C° 0.6 mm 1 mps 719 mmHg 97%
08:00 +21°C° 0.6 mm 0 mps 720 mmHg 96%
09:00 +22°C° 0.6 mm 0 mps 720 mmHg 95%
10:00 +23°C° 0 mm 0 mps 720 mmHg 90%
11:00 +25°C° 0 mm 1 mps 720 mmHg 85%
12:00 +26°C° 0 mm 1 mps 720 mmHg 79%
13:00 +27°C° 0.3 mm 1 mps 719 mmHg 77%
14:00 +27°C° 0.3 mm 1 mps 718 mmHg 75%
15:00 +27°C° 0.3 mm 1 mps 718 mmHg 73%
16:00 +26°C° 0.1 mm 1 mps 718 mmHg 75%
17:00 +26°C° 0.1 mm 1 mps 718 mmHg 77%
18:00 +25°C° 0.1 mm 1 mps 718 mmHg 80%
19:00 +24°C° 0.5 mm 1 mps 719 mmHg 83%
20:00 +24°C° 0.5 mm 1 mps 719 mmHg 87%
21:00 +23°C° 0.5 mm 1 mps 720 mmHg 90%
22:00 +23°C° 0.5 mm 1 mps 720 mmHg 92%
23:00 +21°C° 0.5 mm 0 mps 720 mmHg 94%

Day after tomorrow, 21 April, Wednesday

Time Temperature Precipitation Wind Pressure Humidity
00:00 +21°C° 0.5 mm 0 mps 720 mmHg 95%
01:00 +21°C° 0.3 mm 0 mps 719 mmHg 95%
02:00 +21°C° 0.3 mm 0 mps 719 mmHg 96%
03:00 +21°C° 0.3 mm 0 mps 718 mmHg 96%
04:00 +21°C° 0.2 mm 0 mps 719 mmHg 96%
05:00 +21°C° 0.2 mm 0 mps 719 mmHg 96%
06:00 +21°C° 0.2 mm 0 mps 719 mmHg 96%
07:00 +21°C° 0.2 mm 0 mps 720 mmHg 95%
08:00 +21°C° 0.2 mm 0 mps 720 mmHg 95%
09:00 +21°C° 0.2 mm 0 mps 721 mmHg 94%
10:00 +22°C° 0.5 mm 0 mps 721 mmHg 89%
11:00 +26°C° 0.5 mm 1 mps 720 mmHg 84%
12:00 +27°C° 0.5 mm 1 mps 720 mmHg 79%
13:00 +27°C° 0.1 mm 1 mps 719 mmHg 77%
14:00 +27°C° 0.1 mm 1 mps 719 mmHg 75%
15:00 +27°C° 0.1 mm 1 mps 718 mmHg 73%
16:00 +26°C° 0.2 mm 1 mps 718 mmHg 77%
17:00 +25°C° 0.2 mm 1 mps 719 mmHg 80%
18:00 +24°C° 0.2 mm 1 mps 719 mmHg 84%
19:00 +24°C° 0 mm 1 mps 719 mmHg 85%
20:00 +24°C° 0 mm 1 mps 720 mmHg 86%
21:00 +24°C° 0 mm 1 mps 720 mmHg 88%
22:00 +23°C° 0 mm 1 mps 720 mmHg 89%
23:00 +21°C° 0 mm 0 mps 720 mmHg 90%

22 April, Thursday

Time Temperature Precipitation Wind Pressure Humidity
00:00 +21°C° 0 mm 0 mps 720 mmHg 91%
01:00 +21°C° 0 mm 0 mps 720 mmHg 91%
02:00 +21°C° 0 mm 0 mps 719 mmHg 91%
03:00 +21°C° 0 mm 0 mps 719 mmHg 91%
04:00 +21°C° 0 mm 0 mps 719 mmHg 92%
05:00 +20°C° 0 mm 0 mps 719 mmHg 92%
06:00 +22°C° 0 mm 1 mps 720 mmHg 93%
07:00 +23°C° 0 mm 1 mps 720 mmHg 89%
08:00 +24°C° 0 mm 1 mps 721 mmHg 84%
09:00 +25°C° 0 mm 1 mps 721 mmHg 80%
10:00 +27°C° 0 mm 1 mps 721 mmHg 70%
11:00 +29°C° 0 mm 1 mps 721 mmHg 61%
12:00 +32°C° 0 mm 1 mps 720 mmHg 51%
13:00 +32°C° 0 mm 1 mps 720 mmHg 50%
14:00 +32°C° 0 mm 1 mps 719 mmHg 50%
15:00 +32°C° 0 mm 1 mps 718 mmHg 49%
16:00 +29°C° 0.3 mm 1 mps 718 mmHg 59%
17:00 +27°C° 0.3 mm 1 mps 719 mmHg 69%
18:00 +25°C° 0.3 mm 1 mps 719 mmHg 79%
19:00 +25°C° 0.1 mm 1 mps 719 mmHg 81%
20:00 +25°C° 0.1 mm 1 mps 719 mmHg 83%
21:00 +22°C° 0.1 mm 0 mps 720 mmHg 85%
22:00 +22°C° 0.1 mm 0 mps 720 mmHg 87%
23:00 +21°C° 0.1 mm 0 mps 720 mmHg 90%

23 April, Friday

Time Temperature Precipitation Wind Pressure Humidity
00:00 +21°C° 0.1 mm 0 mps 719 mmHg 93%
01:00 +21°C° 0 mm 0 mps 719 mmHg 94%
02:00 +20°C° 0 mm 0 mps 719 mmHg 94%
03:00 +20°C° 0 mm 0 mps 719 mmHg 95%
04:00 +20°C° 0.1 mm 0 mps 719 mmHg 94%
05:00 +21°C° 0.1 mm 0 mps 720 mmHg 94%
06:00 +21°C° 0.1 mm 0 mps 720 mmHg 93%
07:00 +22°C° 0.1 mm 0 mps 720 mmHg 88%
08:00 +25°C° 0.1 mm 1 mps 721 mmHg 83%
09:00 +27°C° 0.1 mm 1 mps 721 mmHg 78%
10:00 +28°C° 0.5 mm 1 mps 721 mmHg 70%
11:00 +30°C° 0.5 mm 2 mps 721 mmHg 61%
12:00 +32°C° 0.5 mm 2 mps 721 mmHg 52%
13:00 +32°C° 0 mm 2 mps 720 mmHg 51%
14:00 +32°C° 0 mm 2 mps 719 mmHg 50%
15:00 +32°C° 0 mm 1 mps 718 mmHg 49%
16:00 +31°C° 0 mm 1 mps 718 mmHg 53%
17:00 +29°C° 0 mm 1 mps 718 mmHg 58%
18:00 +28°C° 0 mm 1 mps 719 mmHg 62%
19:00 +28°C° 0 mm 1 mps 719 mmHg 64%
20:00 +27°C° 0 mm 1 mps 719 mmHg 66%
21:00 +26°C° 0 mm 1 mps 719 mmHg 68%
22:00 +26°C° 0 mm 1 mps 719 mmHg 72%
23:00 +25°C° 0 mm 1 mps 719 mmHg 75%

24 April, Saturday

Time Temperature Precipitation Wind Pressure Humidity
00:00 +22°C° 0 mm 0 mps 719 mmHg 79%
01:00 +22°C° 0 mm 0 mps 719 mmHg 82%
02:00 +23°C° 0 mm 1 mps 718 mmHg 84%
03:00 +23°C° 0 mm 1 mps 718 mmHg 87%
04:00 +23°C° 0 mm 1 mps 718 mmHg 89%
05:00 +22°C° 0 mm 1 mps 719 mmHg 91%
06:00 +22°C° 0 mm 1 mps 719 mmHg 93%
07:00 +24°C° 0 mm 1 mps 719 mmHg 83%
08:00 +26°C° 0 mm 1 mps 720 mmHg 74%
09:00 +29°C° 0 mm 2 mps 721 mmHg 65%
10:00 +30°C° 0 mm 2 mps 720 mmHg 58%
11:00 +32°C° 0 mm 2 mps 720 mmHg 52%
12:00 +34°C° 0 mm 2 mps 720 mmHg 45%
13:00 +34°C° 0 mm 2 mps 719 mmHg 47%
14:00 +32°C° 0 mm 2 mps 718 mmHg 48%
15:00 +32°C° 0 mm 1 mps 717 mmHg 50%
16:00 +31°C° 0 mm 1 mps 718 mmHg 53%
17:00 +30°C° 0 mm 1 mps 718 mmHg 57%
18:00 +27°C° 0 mm 0 mps 718 mmHg 61%
19:00 +28°C° 0 mm 1 mps 718 mmHg 62%
20:00 +28°C° 0 mm 1 mps 719 mmHg 63%
21:00 +27°C° 0 mm 1 mps 719 mmHg 65%
22:00 +27°C° 0 mm 1 mps 719 mmHg 68%
23:00 +26°C° 0 mm 1 mps 719 mmHg 72%
Show more